Location: Newark
(33.6439°N, 114.9881°W)
Time: 04:26:46
(UTC+00:00)

Tiros 1 - Pass Details

Date: 25 July 2019
Orbit: 630 x 664 km, 48.4° (Epoch: 21 August)

Event Time Altitude Azimuth Distance (km) Brightness Sun altitude
Rises 17:19:42 0° 227° (SW) 2,956 10.3 54.6°
Reaches altitude 10° 17:22:02 10° 227° (SW) 2,053 9.7 55.0°
Maximum altitude 17:26:46 82° 140° (SE) 667 8.6 56.0°
Drops below altitude 10° 17:31:35 10° 53° (NE) 2,077 10.2 56.9°
Sets 17:33:56 0° 53° (NE) 2,994 10.8 57.4°
